Мульда

Россия / Республика Коми     67°29′03″N   63°40′52″E
темп.,
°C
ветер,
м/с
пор.,
м/с
влажн.,
%
обл.,
%
осадки,
мм/ч
давл.,
гПа
погр.,
м
5 марта, пт
пт500:00−18всв2397100 0.1 99134
03:00−18всв2397100 0.4 99238
06:00−18в129799 0.1 99220
09:00−16юв119699 0.3 99385
12:00−15ю1293100 0.1 993219
15:00−17ююз229799 0.2 99623
18:00−20юз229994 0.0 99620
21:00−21юз229992 0.1 99821
6 марта, сб
сб600:00−24ююз2210096 0.0 99820
03:00−25ююз2210098 0.1 99920
06:00−26ююз22100100 0.0 99919
09:00−23ююз2299100 0.1 100068
12:00−22ю2398100 0.0 1001150
15:00−24ююз229999 0.1 100220
18:00−24ююз229997 0.1 100320
21:00−24ююз239996 0.1 100422
7 марта, вс
вс700:00−25ююз2210098 0.1 100519
03:00−25ююз229998 0.1 100619
06:00−27ююз2210099 0.1 100719
09:00−25ююз239899 0.1 1008111
12:00−24ююз229797 0.0 1009136
15:00−27юз1110098 0.1 101019
18:00−29ю1110098 0.1 101119
21:00−29юв1110096 0.1 101219
8 марта, пн
пн800:00−29всв119997 0.1 101219
03:00−29св239897 0.1 101261
06:00−32св239890 0.1 101224
09:00−32ссв339790 0.1 1012108
12:00−32ссв349545 0.0 1012152
15:00−34с349523 0.0 101273
18:00−36ссв349618 0.0 101236
21:00−37с349740 0.0 101223
9 марта, вт
вт900:00−37с339814 0.0 101219
03:00−38с229915 0.0 101219
06:00−39с1110018 0.0 101219
09:00−35сз009611 0.0 101225
12:00−33зюз11941 0.0 101384
15:00−35зюз11970 0.0 101319
18:00−38зюз111007 0.0 101319
21:00−37ююз239935 0.0 101219